Noble, Illinois
Current Conditions -  °F | °C
As of 4:55 AM on Monday 20 Oct 2014 (Local Time) from KOLY Reporting Station
Broken Clouds Broken Clouds  
Wind Chill: 50°   Ceiling: 11000
Heat Index: 50°   Visibility: 10mi
Dew Point: 45°   Wind: 0mph
Humidity: 82%   Direction: NA
Pressure: 29.99"   Gusts: NA
Location:  38.7°N, 88.22°W
Report Text: KOLY 200955Z AUTO 00000KT 10SM BKN110 10/07 A2999 RMK AO2
Loading
Personal Weather Stations






























Interactive Weather Map
Tropical Storm Tracking
New forecast layout! Learn more

10-Day Weather Forecast

Advertisements
Track Severe Weather on mobile